Location: *
(46.1006°N, 1.8394°E)
Time: 23:37:15
(UTC+00:00)

DMSP B5D2-2 - Pass Details

Date: 20 September 2019
Orbit: 791 x 806 km, 98.4° (Epoch: 17 October)

Event Time Altitude Azimuth Distance (km) Brightness Sun altitude
Rises 20:44:14 0° 12° (NNE) 3,332 7.6 -28.3°
Reaches altitude 10° 20:46:35 10° 11° (N) 2,397 6.8 -28.6°
Enters shadow 20:51:28 71° 327° (NNW) 854 4.2 -29.3°
